[[{"header":{"parameterUnit":"m.s-1","parameterCategory":1,"la1":30.2991,"la2":30.254,"lo1":-89.0895,"lo2":-89.0444,"dy":0.0017,"dx":0.0017,"nx":28,"ny":28,"refTime":"2024-12-17T09:00:00:Z","depth":0,"parameterNumber":2,"parameterNumberName":"U-component_of_WINDS"},"data":[0,0,0,0,0,0,0,0,0,0,0,0,0,0,0,0,0,0,0,0,0,0,0,0,0,0,0,0,0,0,0,0,0,0,0,0,0,0,0,0,0,0,0,0,0,0,0,0,0,0,0,0,0,0,0,0,0,0,3.11,3.1101,0,3.1229,3.1231,3.1232,3.1279,3.1279,3.1278,3.1278,3.141,3.1414,3.1418,0,0,0,0,0,0,0,0,0,0,0,0,0,3.0895,3.0898,3.11,3.1101,3.1103,3.1229,3.1231,3.1233,3.1279,3.1279,3.1278,3.1278,3.1409,3.1414,3.1419,0,0,0,0,0,0,0,0,0,0,0,0,0,3.1,3.0899,3.1099,3.1141,3.1146,3.1229,3.1231,3.1233,3.1279,3.1279,3.1278,3.1277,3.1408,3.1413,3.1419,3.1469,0,0,3.1437,3.144,0,0,0,0,0,0,0,0,3.0994,3.1007,3.1134,3.1139,3.1144,3.1237,3.1207,3.1312,3.1279,3.1229,3.1278,3.1277,3.1353,3.1364,3.139,3.1476,3.1481,3.1438,3.1441,3.1444,3.1446,0,0,0,0,0,0,0,3.0986,3.1002,3.1151,3.1135,3.1142,3.1154,3.1169,3.1227,3.1293,3.1233,3.1237,3.1252,3.1356,3.1384,3.1393,3.1483,3.1438,3.1443,3.1447,3.1449,3.1619,3.162,0,0,0,0,0,0,3.0972,3.0996,3.1147,3.1155,3.1066,3.1159,3.1174,3.1208,3.1293,3.1305,3.1252,3.1253,3.1374,3.1386,3.1398,3.1464,3.1444,3.145,3.1453,3.1618,3.162,3.1621,0,0,0,0,0,0,3.0967,3.0985,3.1142,3.1076,3.1097,3.1163,3.12,3.1211,3.1239,3.1307,3.1319,3.1268,3.1374,3.1389,3.1452,3.1469,3.1452,3.1458,3.1617,3.1619,3.162,3.1595,0,0,0,0,0,0,3.0961,3.0983,3.1002,3.1076,3.1101,3.1193,3.1201,3.1214,3.1249,3.1252,3.1325,3.1337,3.1375,3.1443,3.1458,3.1477,3.1462,3.1616,3.1618,3.162,3.1594,3.1595,3.1596,0,0,0,0,0,3.0954,3.099,3.1003,3.1021,3.1126,3.1194,3.1208,3.125,3.125,3.127,3.1315,3.1334,3.1464,3.1449,3.1466,3.1487,3.1615,3.1617,3.162,3.1594,3.1595,3.1596,0,0,0,0,0,0,3.0915,3.1,3.1016,3.1077,3.1128,3.1201,3.1228,3.125,3.1302,3.1303,3.1354,3.137,3.1428,3.1464,3.1445,3.1541,3.1541,3.1547,3.1516,3.1518,3.1518,3.1509,3.1467,0,0,0,0,0,3.0914,3.0962,3.1033,3.108,3.1105,3.1162,3.1193,3.1222,3.1277,3.1299,3.1348,3.14,3.1454,3.1487,3.154,3.16,3.1617,3.1623,3.1624,3.1624,3.1629,3.1665,3.1669,3.1628,3.1628,3.1628,0,0,3.0912,3.0964,3.0991,3.1074,3.1117,3.1166,3.118,3.1231,3.1268,3.1307,3.1369,3.1406,3.1469,3.1531,3.156,3.1562,3.1644,3.1627,3.1627,3.1631,3.1668,3.1672,3.1675,3.1629,3.1629,3.1629,0,0,3.0933,3.0976,3.1021,3.1064,3.1129,3.1167,3.1178,3.1249,3.1276,3.1339,3.137,3.1415,3.1505,3.1549,3.1583,3.1622,3.1643,3.1638,3.1642,3.1677,3.168,3.1683,3.1699,3.1704,3.1642,3.1642,3.1642,0,3.0922,3.0996,3.1041,3.1091,3.1127,3.1165,3.1211,3.1251,3.133,3.1354,3.1355,3.147,3.1515,3.1588,3.1598,3.1624,3.1639,3.163,3.1676,3.168,3.1683,3.1699,3.1704,3.1641,3.1641,3.1641,3.1641,0,3.0981,3.1032,3.106,3.1136,3.1176,3.1223,3.1276,3.1311,3.1336,3.1375,3.144,3.1495,3.156,3.1579,3.1604,3.1657,3.1657,3.1666,3.1667,3.1685,3.1701,3.1707,3.164,3.164,3.164,3.164,0,0,3.0981,3.1082,3.1091,3.1127,3.1202,3.1243,3.1293,3.1358,3.1387,3.144,3.1485,3.1561,3.1571,3.1609,3.164,3.167,3.17,3.1676,3.1679,3.168,3.1764,3.1757,3.1763,3.1714,3.1715,3.1716,3.1759,0,3.1013,3.1104,3.1146,3.1219,3.1268,3.1305,3.1349,3.14,3.1438,3.1485,3.1527,3.1581,3.1589,3.1613,3.1644,3.169,3.1718,3.1687,3.1757,3.1759,3.1741,3.1771,3.1764,3.1801,3.1765,3.1766,3.1767,0,3.1062,3.1116,3.1194,3.1265,3.1287,3.1326,3.1389,3.1433,3.1493,3.1518,3.1562,3.1592,3.1647,3.1644,3.1722,3.17,3.1731,3.1758,3.1761,3.177,3.1765,3.1782,3.1814,3.182,3.1777,3.1776,3.1775,0,3.1057,3.1149,3.1207,3.1237,3.132,3.1347,3.1383,3.1442,3.1479,3.1534,3.1558,3.1619,3.1653,3.1699,3.1745,3.1738,3.1819,3.1819,3.1843,3.1842,3.1859,3.1857,3.1898,3.1877,3.1877,3.1877,3.1877,0,3.1089,3.1135,3.1206,3.1242,3.1296,3.1345,3.1397,3.1436,3.1488,3.1534,3.1569,3.1611,3.1668,3.1718,3.1754,3.1814,3.1828,3.1851,3.1861,3.1849,3.1846,3.1871,3.187,3.1878,3.1878,3.1878,3.1877,0,3.1092,3.1141,3.1208,3.1282,3.1302,3.1338,3.1402,3.144,3.1479,3.1536,3.1552,3.1614,3.1675,3.1725,3.1804,3.1828,3.1891,3.1901,3.1871,3.1876,3.1898,3.1895,3.1956,3.1967,3.1937,3.1937,3.1938,0,3.1109,3.1146,3.1225,3.1257,3.1293,3.1346,3.1383,3.1433,3.1471,3.1543,3.1572,3.1634,3.1687,3.1782,3.1835,3.1896,3.1909,3.1926,3.1918,3.1906,3.1911,3.1908,3.1913,3.1926,3.1926,3.1926,3.1927,0,3.1136,3.1159,3.1212,3.1274,3.1317,3.1368,3.142,3.1445,3.1505,3.1546,3.1608,3.1649,3.1731,3.1793,3.186,3.1898,3.1923,3.1928,3.1938,3.1926,3.1908,3.192,3.1874,3.1927,3.1927,3.1927,3.1927,3.1927,3.1148,3.1183,3.1245,3.1302,3.1347,3.1395,3.1434,3.1479,3.1531,3.1602,3.1628,3.1692,3.1753,3.1845,3.1884,3.1935,3.1938,3.1951,3.1954,3.1957,3.1956,3.1899,3.1947,3.1948,3.1948,3.1948,3.1948,0,3.1178,3.122,3.1273,3.1344,3.139,3.1409,3.1468,3.1506,3.1562,3.1616,3.1668,3.174,3.1801,3.1859,3.1923,3.1954,3.1967,3.1969,3.1968,3.1977,3.1949,3.1935,3.1957,3.1957,3.1957,3.1957,3.1957,3.1957,3.1199,3.126,3.1291,3.1374,3.1416,3.1479,3.1511,3.1556,3.16,3.1679,3.173,3.1767,3.1824,3.1893,3.195,3.1966,3.1989,3.1988,3.2007,3.198,3.1978,3.1977,3.1965,3.1992,3.1992,3.2031,3.2031,3.2031]},{"header":{"parameterUnit":"m.s-1","parameterCategory":1,"la1":30.2991,"la2":30.254,"lo1":-89.0895,"lo2":-89.0444,"dy":0.0017,"dx":0.0017,"nx":28,"ny":28,"refTime":"2024-12-17T09:00:00:Z","depth":0,"parameterNumber":3,"parameterNumberName":"V-component_of_WINDS"},"data":[0,0,0,0,0,0,0,0,0,0,0,0,0,0,0,0,0,0,0,0,0,0,0,0,0,0,0,0,0,0,0,0,0,0,0,0,0,0,0,0,0,0,0,0,0,0,0,0,0,0,0,0,0,0,0,0,0,0,-0.3369,-0.3369,0,-0.3305,-0.3305,-0.3304,-0.3299,-0.3299,-0.33,-0.3301,-0.323,-0.3227,-0.3225,0,0,0,0,0,0,0,0,0,0,0,0,0,-0.3487,-0.3485,-0.337,-0.3369,-0.3368,-0.3306,-0.3305,-0.3304,-0.3298,-0.3299,-0.33,-0.3301,-0.3231,-0.3228,-0.3225,0,0,0,0,0,0,0,0,0,0,0,0,0,-0.343,-0.3484,-0.337,-0.3358,-0.3356,-0.3306,-0.3305,-0.3304,-0.3298,-0.3299,-0.33,-0.3301,-0.3232,-0.3228,-0.3224,-0.3179,0,0,-0.3213,-0.3211,0,0,0,0,0,0,0,0,-0.3434,-0.3426,-0.336,-0.3359,-0.3357,-0.3311,-0.332,-0.3262,-0.3298,-0.332,-0.3301,-0.3302,-0.3256,-0.325,-0.3235,-0.3176,-0.3173,-0.3212,-0.321,-0.3208,-0.3207,0,0,0,0,0,0,0,-0.3438,-0.3429,-0.3344,-0.336,-0.3357,-0.3356,-0.3349,-0.3309,-0.3282,-0.3318,-0.3318,-0.3311,-0.3255,-0.3239,-0.3234,-0.3172,-0.3212,-0.3209,-0.3207,-0.3205,-0.3078,-0.3077,0,0,0,0,0,0,-0.3444,-0.3432,-0.3346,-0.3342,-0.3399,-0.3353,-0.3345,-0.3325,-0.3283,-0.3278,-0.331,-0.3311,-0.3245,-0.3238,-0.3231,-0.3179,-0.3208,-0.3205,-0.3202,-0.3079,-0.3078,-0.3077,0,0,0,0,0,0,-0.3447,-0.3436,-0.3349,-0.3387,-0.3376,-0.335,-0.3327,-0.3323,-0.3307,-0.3277,-0.3272,-0.3299,-0.3246,-0.3237,-0.3194,-0.3177,-0.3203,-0.3199,-0.3081,-0.3079,-0.3078,-0.3073,0,0,0,0,0,0,-0.345,-0.3437,-0.342,-0.3387,-0.3374,-0.3312,-0.3326,-0.3321,-0.3301,-0.3302,-0.3265,-0.326,-0.3246,-0.32,-0.319,-0.3172,-0.3196,-0.3082,-0.308,-0.3078,-0.3074,-0.3071,-0.3069,0,0,0,0,0,-0.3454,-0.3418,-0.3419,-0.3408,-0.3351,-0.3311,-0.3304,-0.329,-0.33,-0.3282,-0.3264,-0.3261,-0.3181,-0.3195,-0.3184,-0.3165,-0.3083,-0.3081,-0.3078,-0.3076,-0.3072,-0.3069,0,0,0,0,0,0,-0.3446,-0.3414,-0.3413,-0.3366,-0.3342,-0.331,-0.3287,-0.3286,-0.3256,-0.3258,-0.3241,-0.3233,-0.3191,-0.3174,-0.3191,-0.3122,-0.3133,-0.3128,-0.3135,-0.3131,-0.3128,-0.3133,-0.3193,0,0,0,0,0,-0.344,-0.3411,-0.3384,-0.3345,-0.3333,-0.3313,-0.3294,-0.3287,-0.326,-0.3249,-0.3227,-0.32,-0.317,-0.3149,-0.3119,-0.3073,-0.3066,-0.3055,-0.3052,-0.305,-0.3045,-0.3024,-0.3019,-0.3069,-0.3069,-0.3069,0,0,-0.3424,-0.3403,-0.3385,-0.3343,-0.3323,-0.3294,-0.3303,-0.3271,-0.3249,-0.3243,-0.3203,-0.3187,-0.3156,-0.3113,-0.3093,-0.3097,-0.3031,-0.3046,-0.3045,-0.3042,-0.3021,-0.3016,-0.3012,-0.3067,-0.3068,-0.3068,0,0,-0.3382,-0.3362,-0.333,-0.3312,-0.3283,-0.3271,-0.3264,-0.3234,-0.3224,-0.3184,-0.3181,-0.3155,-0.3101,-0.3081,-0.3064,-0.3022,-0.3019,-0.3012,-0.2996,-0.2976,-0.2972,-0.2968,-0.2956,-0.2951,-0.3008,-0.3008,-0.3008,0,-0.3365,-0.3322,-0.3312,-0.3282,-0.3265,-0.3263,-0.3231,-0.3213,-0.3175,-0.3163,-0.317,-0.3107,-0.3085,-0.304,-0.303,-0.3016,-0.3008,-0.3015,-0.2974,-0.297,-0.2966,-0.2954,-0.2949,-0.3008,-0.3008,-0.3008,-0.3008,0,-0.3305,-0.3276,-0.3253,-0.3221,-0.3202,-0.317,-0.3156,-0.3138,-0.3134,-0.3122,-0.3083,-0.3059,-0.3026,-0.3015,-0.3008,-0.297,-0.2974,-0.2977,-0.2987,-0.2961,-0.295,-0.2945,-0.3007,-0.3007,-0.3008,-0.3008,0,0,-0.3251,-0.3219,-0.3211,-0.3199,-0.3171,-0.3148,-0.3118,-0.3089,-0.3075,-0.305,-0.3026,-0.2984,-0.2989,-0.297,-0.2962,-0.2944,-0.2917,-0.295,-0.2949,-0.2946,-0.2876,-0.2874,-0.2868,-0.2916,-0.2915,-0.2914,-0.2879,0,-0.3206,-0.3155,-0.3148,-0.3103,-0.3077,-0.3078,-0.3053,-0.3034,-0.3023,-0.3,-0.2988,-0.296,-0.2967,-0.2956,-0.2938,-0.2924,-0.2902,-0.2926,-0.2893,-0.2892,-0.2901,-0.2861,-0.2858,-0.2825,-0.2874,-0.2873,-0.2873,0,-0.3146,-0.3125,-0.3078,-0.3059,-0.3048,-0.3025,-0.3001,-0.2979,-0.2958,-0.2952,-0.2934,-0.293,-0.2901,-0.2915,-0.2876,-0.2893,-0.288,-0.2871,-0.287,-0.2865,-0.288,-0.2857,-0.2814,-0.281,-0.2865,-0.2865,-0.2866,0,-0.3114,-0.3073,-0.3041,-0.303,-0.3006,-0.2991,-0.298,-0.2961,-0.2946,-0.2925,-0.2915,-0.289,-0.2876,-0.2857,-0.2848,-0.2858,-0.2811,-0.2822,-0.2805,-0.2806,-0.2794,-0.2794,-0.2749,-0.2785,-0.2785,-0.2785,-0.2785,0,-0.3064,-0.3036,-0.3027,-0.3007,-0.2977,-0.2971,-0.2941,-0.293,-0.2915,-0.2894,-0.2892,-0.2872,-0.2861,-0.284,-0.2833,-0.2803,-0.2796,-0.2791,-0.279,-0.2791,-0.2792,-0.2782,-0.2784,-0.2784,-0.2784,-0.2785,-0.2785,0,-0.3022,-0.3015,-0.298,-0.2963,-0.2958,-0.2937,-0.2922,-0.2903,-0.2896,-0.2869,-0.2863,-0.285,-0.2826,-0.2816,-0.2784,-0.278,-0.2747,-0.2746,-0.2754,-0.2754,-0.2738,-0.274,-0.2684,-0.2677,-0.2718,-0.2717,-0.2717,0,-0.299,-0.297,-0.2952,-0.294,-0.293,-0.2908,-0.2894,-0.2889,-0.2875,-0.2854,-0.2838,-0.2815,-0.2796,-0.2758,-0.2745,-0.2723,-0.2723,-0.2705,-0.2719,-0.2723,-0.2724,-0.2726,-0.2725,-0.2702,-0.2701,-0.2701,-0.2701,0,-0.2937,-0.2936,-0.2917,-0.2899,-0.2883,-0.2867,-0.2852,-0.2841,-0.2834,-0.2819,-0.2796,-0.2782,-0.2754,-0.2731,-0.271,-0.2698,-0.2699,-0.2697,-0.2692,-0.2694,-0.27,-0.2698,-0.2748,-0.2698,-0.2698,-0.2698,-0.2698,-0.2699,-0.29,-0.2883,-0.287,-0.285,-0.284,-0.2827,-0.281,-0.2803,-0.2784,-0.2763,-0.2761,-0.2737,-0.2722,-0.2694,-0.2683,-0.2665,-0.2669,-0.2661,-0.2659,-0.2658,-0.2658,-0.2704,-0.266,-0.266,-0.266,-0.2661,-0.2661,0,-0.2848,-0.2841,-0.2823,-0.2804,-0.279,-0.2795,-0.278,-0.2767,-0.2747,-0.2734,-0.2718,-0.2694,-0.2674,-0.2662,-0.2643,-0.2631,-0.2631,-0.2626,-0.2626,-0.2624,-0.2654,-0.2661,-0.2626,-0.2626,-0.2626,-0.2626,-0.2626,-0.2626,-0.2819,-0.2792,-0.2791,-0.276,-0.2753,-0.2732,-0.2724,-0.2713,-0.2703,-0.2677,-0.2662,-0.2656,-0.2644,-0.2625,-0.2608,-0.2605,-0.2598,-0.2593,-0.2591,-0.2618,-0.2622,-0.2625,-0.2632,-0.2592,-0.2592,-0.2563,-0.2563,-0.2563]}]]